[[{"header":{"parameterUnit":"m.s-1","parameterCategory":1,"la1":30.2991,"la2":30.254,"lo1":-89.0895,"lo2":-89.0444,"dy":0.0017,"dx":0.0017,"nx":28,"ny":28,"refTime":"2025-12-06T09:00:00:Z","depth":0,"parameterNumber":2,"parameterNumberName":"U-component_of_WINDS"},"data":[0,0,0,0,0,0,0,0,0,0,0,0,0,0,0,0,0,0,0,0,0,0,0,0,0,0,0,0,0,0,0,0,0,0,0,0,0,0,0,0,0,0,0,0,0,0,0,0,0,0,0,0,0,0,0,0,0,0,-1.5364,-1.5364,0,-1.5379,-1.5379,-1.5379,-1.532,-1.5319,-1.5317,-1.5315,-1.5334,-1.5336,-1.5338,0,0,0,0,0,0,0,0,0,0,0,0,0,-1.529,-1.5291,-1.5364,-1.5364,-1.5365,-1.5379,-1.5379,-1.5379,-1.5321,-1.5319,-1.5317,-1.5315,-1.5334,-1.5336,-1.5339,0,0,0,0,0,0,0,0,0,0,0,0,0,-1.5315,-1.5292,-1.5364,-1.5337,-1.5335,-1.5379,-1.5379,-1.5379,-1.5321,-1.5319,-1.5316,-1.5314,-1.5333,-1.5336,-1.5339,-1.5411,0,0,-1.5349,-1.535,0,0,0,0,0,0,0,0,-1.5314,-1.5318,-1.5341,-1.5339,-1.5337,-1.5345,-1.5359,-1.539,-1.5322,-1.5327,-1.5315,-1.5312,-1.534,-1.5343,-1.5351,-1.5412,-1.5413,-1.5349,-1.5351,-1.5352,-1.5353,0,0,0,0,0,0,0,-1.5312,-1.5317,-1.537,-1.5341,-1.5339,-1.5325,-1.5326,-1.5365,-1.5348,-1.5326,-1.5322,-1.5324,-1.5339,-1.5348,-1.5351,-1.5413,-1.5349,-1.5352,-1.5354,-1.5355,-1.5534,-1.5536,0,0,0,0,0,0,-1.5313,-1.5316,-1.537,-1.5371,-1.5318,-1.5329,-1.533,-1.5345,-1.5347,-1.5345,-1.5326,-1.5321,-1.5344,-1.5348,-1.5352,-1.5436,-1.5352,-1.5355,-1.5357,-1.5531,-1.5534,-1.5537,0,0,0,0,0,0,-1.5312,-1.5319,-1.5369,-1.5342,-1.5347,-1.5333,-1.5351,-1.5347,-1.5356,-1.5347,-1.5345,-1.5339,-1.5342,-1.5347,-1.5396,-1.5436,-1.5357,-1.536,-1.5528,-1.5532,-1.5536,-1.5605,0,0,0,0,0,0,-1.531,-1.5318,-1.5345,-1.5343,-1.5349,-1.5413,-1.5353,-1.5349,-1.5361,-1.5355,-1.5359,-1.5357,-1.5341,-1.5392,-1.54,-1.5439,-1.5362,-1.5524,-1.5529,-1.5534,-1.5599,-1.5611,-1.5621,0,0,0,0,0,-1.5307,-1.5364,-1.5346,-1.5353,-1.5381,-1.5415,-1.5418,-1.5397,-1.5365,-1.5392,-1.5386,-1.5357,-1.543,-1.5397,-1.5406,-1.5446,-1.5521,-1.5528,-1.5534,-1.5594,-1.5609,-1.5621,0,0,0,0,0,0,-1.5372,-1.5364,-1.5343,-1.5401,-1.5409,-1.5405,-1.5438,-1.5413,-1.5432,-1.5425,-1.5399,-1.5401,-1.5455,-1.5455,-1.5419,-1.5516,-1.547,-1.5479,-1.5513,-1.5527,-1.5538,-1.5537,-1.5365,0,0,0,0,0,-1.5393,-1.542,-1.5411,-1.5464,-1.5468,-1.5453,-1.5467,-1.5449,-1.5457,-1.546,-1.5458,-1.5468,-1.5493,-1.551,-1.5533,-1.5599,-1.56,-1.5632,-1.5643,-1.5652,-1.5659,-1.5694,-1.5708,-1.5558,-1.5558,-1.5558,0,0,-1.5437,-1.5436,-1.5454,-1.5477,-1.548,-1.551,-1.5456,-1.5489,-1.5511,-1.5466,-1.5511,-1.5511,-1.552,-1.5578,-1.5603,-1.558,-1.5701,-1.566,-1.5667,-1.567,-1.5702,-1.5717,-1.5729,-1.5563,-1.5562,-1.5561,0,0,-1.5531,-1.5533,-1.5576,-1.5581,-1.5587,-1.5577,-1.5587,-1.5587,-1.5584,-1.5629,-1.5596,-1.5623,-1.5667,-1.5674,-1.5684,-1.5782,-1.5756,-1.579,-1.5848,-1.5883,-1.5895,-1.5905,-1.594,-1.5953,-1.5798,-1.5798,-1.5798,0,-1.5585,-1.5626,-1.5602,-1.5637,-1.5648,-1.5608,-1.5652,-1.5659,-1.5673,-1.5682,-1.5656,-1.571,-1.5713,-1.5772,-1.5796,-1.5806,-1.5817,-1.5789,-1.5895,-1.5905,-1.5914,-1.5947,-1.596,-1.5802,-1.5802,-1.5801,-1.5801,0,-1.5692,-1.5722,-1.5756,-1.5769,-1.5785,-1.5824,-1.5807,-1.5825,-1.5807,-1.58,-1.5847,-1.585,-1.5872,-1.5885,-1.5869,-1.5943,-1.5928,-1.5899,-1.5852,-1.5933,-1.5964,-1.5976,-1.5808,-1.5807,-1.5805,-1.5804,0,0,-1.5827,-1.5826,-1.5839,-1.5845,-1.5849,-1.5872,-1.5911,-1.5931,-1.5948,-1.5959,-1.5991,-1.603,-1.6003,-1.6014,-1.5998,-1.6028,-1.6106,-1.5995,-1.5995,-1.6016,-1.6188,-1.6209,-1.6224,-1.6089,-1.6091,-1.6093,-1.6187,0,-1.5919,-1.5983,-1.5962,-1.6028,-1.6055,-1.6017,-1.6051,-1.6058,-1.6053,-1.6076,-1.607,-1.6097,-1.606,-1.6066,-1.6095,-1.609,-1.614,-1.6083,-1.6119,-1.6121,-1.6117,-1.624,-1.6262,-1.6351,-1.6198,-1.62,-1.6202,0,-1.6035,-1.605,-1.6117,-1.6117,-1.6128,-1.6158,-1.6176,-1.6198,-1.6206,-1.62,-1.6212,-1.619,-1.6229,-1.6183,-1.6237,-1.6199,-1.6212,-1.6212,-1.6215,-1.6217,-1.6166,-1.6245,-1.6378,-1.6391,-1.6221,-1.6219,-1.6218,0,-1.6126,-1.6163,-1.6208,-1.6214,-1.6215,-1.6237,-1.6239,-1.6244,-1.6258,-1.6274,-1.6283,-1.6304,-1.6315,-1.6333,-1.6317,-1.6285,-1.6374,-1.6326,-1.637,-1.6371,-1.639,-1.6389,-1.6527,-1.64,-1.64,-1.64,-1.6399,0,-1.6231,-1.6273,-1.6249,-1.6277,-1.6324,-1.6301,-1.6348,-1.6346,-1.6351,-1.6379,-1.6348,-1.6375,-1.6353,-1.6379,-1.6367,-1.6413,-1.6419,-1.6416,-1.6412,-1.6418,-1.6418,-1.6426,-1.6419,-1.6403,-1.6402,-1.6402,-1.6401,0,-1.634,-1.6325,-1.6372,-1.6369,-1.6369,-1.6404,-1.6402,-1.6428,-1.6421,-1.6456,-1.6463,-1.6451,-1.648,-1.6466,-1.6496,-1.6488,-1.6548,-1.6536,-1.6545,-1.6541,-1.6586,-1.6582,-1.6733,-1.6752,-1.6614,-1.6615,-1.6616,0,-1.6407,-1.6439,-1.6439,-1.6454,-1.6458,-1.6484,-1.6497,-1.6476,-1.6492,-1.6503,-1.6529,-1.6554,-1.6573,-1.662,-1.6615,-1.6638,-1.6627,-1.6678,-1.663,-1.6635,-1.6627,-1.6625,-1.6628,-1.6688,-1.6689,-1.6691,-1.6692,0,-1.6528,-1.6519,-1.6539,-1.6557,-1.6574,-1.6587,-1.6599,-1.6614,-1.6593,-1.6612,-1.664,-1.6655,-1.6685,-1.6711,-1.6731,-1.6734,-1.671,-1.6707,-1.6718,-1.6724,-1.6727,-1.6726,-1.657,-1.6704,-1.6702,-1.6702,-1.6701,-1.67,-1.6617,-1.6644,-1.6648,-1.6671,-1.6677,-1.6689,-1.6713,-1.6708,-1.673,-1.6752,-1.6739,-1.6772,-1.6779,-1.6804,-1.681,-1.6836,-1.6816,-1.6833,-1.6837,-1.6841,-1.6846,-1.6724,-1.684,-1.684,-1.6839,-1.6839,-1.6839,0,-1.6735,-1.6736,-1.6758,-1.6774,-1.6793,-1.6768,-1.6779,-1.6797,-1.6826,-1.6834,-1.6854,-1.6886,-1.6911,-1.6908,-1.6931,-1.6953,-1.6942,-1.696,-1.6957,-1.6959,-1.6863,-1.6851,-1.6968,-1.6968,-1.6968,-1.6968,-1.6968,-1.6968,-1.6799,-1.6842,-1.6834,-1.6881,-1.6882,-1.6912,-1.6921,-1.6931,-1.6938,-1.6975,-1.6995,-1.6993,-1.6997,-1.702,-1.7043,-1.7041,-1.7051,-1.7072,-1.7067,-1.6978,-1.6965,-1.6953,-1.6941,-1.7075,-1.7075,-1.716,-1.7161,-1.7161]},{"header":{"parameterUnit":"m.s-1","parameterCategory":1,"la1":30.2991,"la2":30.254,"lo1":-89.0895,"lo2":-89.0444,"dy":0.0017,"dx":0.0017,"nx":28,"ny":28,"refTime":"2025-12-06T09:00:00:Z","depth":0,"parameterNumber":3,"parameterNumberName":"V-component_of_WINDS"},"data":[0,0,0,0,0,0,0,0,0,0,0,0,0,0,0,0,0,0,0,0,0,0,0,0,0,0,0,0,0,0,0,0,0,0,0,0,0,0,0,0,0,0,0,0,0,0,0,0,0,0,0,0,0,0,0,0,0,0,-2.0871,-2.0869,0,-2.0696,-2.0694,-2.0692,-2.0642,-2.0643,-2.0644,-2.0645,-2.0454,-2.0448,-2.0443,0,0,0,0,0,0,0,0,0,0,0,0,0,-2.1149,-2.1144,-2.0871,-2.0869,-2.0867,-2.0696,-2.0694,-2.0691,-2.0642,-2.0643,-2.0644,-2.0645,-2.0456,-2.0449,-2.0442,0,0,0,0,0,0,0,0,0,0,0,0,0,-2.1006,-2.1143,-2.0872,-2.0822,-2.0816,-2.0696,-2.0693,-2.069,-2.0641,-2.0643,-2.0644,-2.0646,-2.0459,-2.045,-2.0441,-2.0355,0,0,-2.0413,-2.041,0,0,0,0,0,0,0,0,-2.1015,-2.0996,-2.0831,-2.0825,-2.0818,-2.0692,-2.0722,-2.0578,-2.0641,-2.0707,-2.0645,-2.0647,-2.0532,-2.0517,-2.048,-2.0346,-2.0338,-2.0413,-2.0407,-2.0403,-2.0401,0,0,0,0,0,0,0,-2.1025,-2.1003,-2.0801,-2.0829,-2.0821,-2.0803,-2.0785,-2.0694,-2.0613,-2.0702,-2.0698,-2.0678,-2.0528,-2.0489,-2.0475,-2.0335,-2.0413,-2.0405,-2.0399,-2.0396,-2.0114,-2.0112,0,0,0,0,0,0,-2.1045,-2.1012,-2.0807,-2.0796,-2.0922,-2.0797,-2.0777,-2.0731,-2.0614,-2.0598,-2.0677,-2.0676,-2.0504,-2.0486,-2.0468,-2.0355,-2.0403,-2.0395,-2.039,-2.0116,-2.0113,-2.0111,0,0,0,0,0,0,-2.1051,-2.1027,-2.0814,-2.0903,-2.0875,-2.0791,-2.074,-2.0727,-2.0688,-2.0595,-2.0579,-2.0653,-2.0504,-2.0481,-2.0383,-2.0348,-2.0391,-2.0383,-2.0118,-2.0115,-2.0112,-2.0131,0,0,0,0,0,0,-2.1059,-2.103,-2.1,-2.0903,-2.087,-2.0736,-2.0738,-2.0722,-2.0674,-2.0671,-2.0568,-2.0553,-2.0503,-2.0396,-2.0374,-2.0336,-2.0376,-2.0121,-2.0117,-2.0113,-2.0133,-2.0129,-2.0125,0,0,0,0,0,-2.1069,-2.1012,-2.0999,-2.0974,-2.0832,-2.0734,-2.0715,-2.0663,-2.0671,-2.0637,-2.0577,-2.0556,-2.0356,-2.0387,-2.0361,-2.032,-2.0123,-2.0118,-2.0114,-2.0135,-2.013,-2.0125,0,0,0,0,0,0,-2.1104,-2.0998,-2.0983,-2.0893,-2.0823,-2.0726,-2.0683,-2.066,-2.0584,-2.0585,-2.0519,-2.0496,-2.0401,-2.0351,-2.0387,-2.0227,-2.0238,-2.0228,-2.0263,-2.0257,-2.0254,-2.0266,-2.0368,0,0,0,0,0,-2.1102,-2.1036,-2.0945,-2.0874,-2.084,-2.0768,-2.0723,-2.0689,-2.0612,-2.0582,-2.0514,-2.0438,-2.0356,-2.0305,-2.0226,-2.0126,-2.0098,-2.0084,-2.008,-2.0078,-2.0068,-2.0004,-1.9995,-2.0096,-2.0096,-2.0096,0,0,-2.1096,-2.103,-2.0992,-2.0879,-2.0821,-2.0748,-2.0743,-2.0668,-2.0611,-2.0569,-2.0472,-2.0419,-2.0328,-2.0227,-2.0179,-2.0182,-2.0034,-2.0072,-2.007,-2.0062,-1.9998,-1.9989,-1.998,-2.0092,-2.0093,-2.0094,0,0,-2.1047,-2.0993,-2.0925,-2.0867,-2.0779,-2.0731,-2.0714,-2.0619,-2.0583,-2.0485,-2.045,-2.0379,-2.0244,-2.0178,-2.0128,-2.0048,-2.0022,-2.0024,-2.0002,-1.994,-1.9932,-1.9925,-1.989,-1.9879,-2.0016,-2.0016,-2.0016,0,-2.1049,-2.0943,-2.0892,-2.0817,-2.0766,-2.0726,-2.0653,-2.0598,-2.0487,-2.045,-2.0456,-2.0281,-2.0217,-2.0097,-2.0077,-2.0039,-2.0013,-2.0034,-1.9939,-1.993,-1.9922,-1.9888,-1.9876,-2.0016,-2.0016,-2.0016,-2.0016,0,-2.0947,-2.0873,-2.0828,-2.0724,-2.0668,-2.0594,-2.0527,-2.0475,-2.0444,-2.0393,-2.0288,-2.0211,-2.0112,-2.0082,-2.0051,-1.9954,-1.9958,-1.9953,-1.9962,-1.9914,-1.9881,-1.9868,-2.0016,-2.0016,-2.0016,-2.0016,0,0,-2.0917,-2.0784,-2.0767,-2.0717,-2.0615,-2.0554,-2.0476,-2.0382,-2.0335,-2.0259,-2.0187,-2.0071,-2.0063,-2.0005,-1.9966,-1.9912,-1.9845,-1.9911,-1.9908,-1.9897,-1.9726,-1.9728,-1.9714,-1.9829,-1.9827,-1.9825,-1.9731,0,-2.0852,-2.0714,-2.0663,-2.0548,-2.0475,-2.0433,-2.0363,-2.029,-2.0239,-2.0165,-2.0106,-2.0023,-2.0022,-1.9986,-1.9931,-1.9866,-1.9809,-1.9872,-1.9755,-1.9751,-1.9775,-1.9698,-1.9701,-1.9617,-1.9719,-1.9717,-1.9715,0,-2.0758,-2.0682,-2.056,-2.0461,-2.0429,-2.0368,-2.0274,-2.0206,-2.0119,-2.0084,-2.0018,-1.9981,-1.9889,-1.9907,-1.9776,-1.982,-1.9768,-1.9728,-1.9723,-1.9707,-1.9728,-1.9674,-1.959,-1.9576,-1.9695,-1.9697,-1.9698,0,-2.0742,-2.0609,-2.0517,-2.0476,-2.036,-2.0317,-2.0265,-2.0181,-2.0125,-2.0041,-2.0003,-1.9909,-1.9856,-1.9782,-1.9717,-1.9737,-1.959,-1.9604,-1.9553,-1.9554,-1.9522,-1.9524,-1.9423,-1.9497,-1.9497,-1.9497,-1.9498,0,-2.0672,-2.0598,-2.0507,-2.0451,-2.0363,-2.0302,-2.0216,-2.0161,-2.0085,-2.0011,-1.9969,-1.99,-1.9822,-1.9741,-1.969,-1.9585,-1.9563,-1.9528,-1.9514,-1.9529,-1.9533,-1.9492,-1.9494,-1.9494,-1.9495,-1.9495,-1.9496,0,-2.0639,-2.0577,-2.0473,-2.0371,-2.0343,-2.0282,-2.0192,-2.0132,-2.0077,-1.9985,-1.9959,-1.9872,-1.9774,-1.9703,-1.9576,-1.9541,-1.9427,-1.9416,-1.9457,-1.945,-1.9401,-1.9404,-1.9266,-1.9242,-1.9337,-1.9336,-1.9336,0,-2.0598,-2.0539,-2.0431,-2.038,-2.0329,-2.0249,-2.0191,-2.0127,-2.0068,-1.9961,-1.9911,-1.9811,-1.9726,-1.957,-1.9492,-1.9392,-1.9375,-1.9334,-1.936,-1.9374,-1.9367,-1.937,-1.936,-1.9329,-1.9328,-1.9328,-1.9327,0,-2.0528,-2.0499,-2.0421,-2.0328,-2.0261,-2.0185,-2.0108,-2.0068,-1.9988,-1.9923,-1.9823,-1.9758,-1.9627,-1.9524,-1.9416,-1.9357,-1.9325,-1.932,-1.9301,-1.9314,-1.9338,-1.9318,-1.9441,-1.9322,-1.9323,-1.9323,-1.9323,-1.9324,-2.0486,-2.043,-2.0343,-2.0254,-2.0189,-2.0116,-2.0053,-1.999,-1.9907,-1.9797,-1.9762,-1.9657,-1.9563,-1.9415,-1.9354,-1.9266,-1.9267,-1.9243,-1.9235,-1.9229,-1.9226,-1.9355,-1.9246,-1.9246,-1.9246,-1.9246,-1.9247,0,-2.041,-2.0351,-2.027,-2.0163,-2.0091,-2.0072,-1.9983,-1.9923,-1.9832,-1.9749,-1.9666,-1.9547,-1.9445,-1.9358,-1.9252,-1.9197,-1.9179,-1.9171,-1.9172,-1.9157,-1.9235,-1.9258,-1.9186,-1.9186,-1.9186,-1.9186,-1.9186,-1.9187,-2.0362,-2.0263,-2.0222,-2.0087,-2.0027,-1.9926,-1.9876,-1.9805,-1.9738,-1.9608,-1.9524,-1.9469,-1.9381,-1.9267,-1.9171,-1.9147,-1.9106,-1.91,-1.9072,-1.9146,-1.9153,-1.9159,-1.9181,-1.9094,-1.9093,-1.9001,-1.9,-1.8999]}]]